Time,TemperatureF,DewpointF,PressureIn,WindDirection,WindDirectionDegrees,WindSpeedMPH,WindSpeedGustMPH,Humidity,HourlyPrecipIn,Conditions,Clouds,dailyrainin,SolarRadiationWatts/m^2,SoftwareType,DateUTC
2013-02-28 00:04:00,49.7,41.0,30.28,SSE,160,0.0,0.0,72,0.00,,,0.00,0,Wunderground v.1.15,2013-02-28 08:04:00,
2013-02-28 00:10:00,49.6,40.9,30.28,SSE,160,0.0,0.0,72,0.00,,,0.00,0,Wunderground v.1.15,2013-02-28 08:10:00,
2013-02-28 00:16:00,49.6,41.3,30.28,SSE,160,0.0,0.0,73,0.00,,,0.00,0,Wunderground v.1.15,2013-02-28 08:16:00,
2013-02-28 00:22:00,49.5,41.2,30.28,SSE,160,0.0,0.0,73,0.00,,,0.00,0,Wunderground v.1.15,2013-02-28 08:22:00,
2013-02-28 00:28:00,49.5,41.2,30.29,SSE,160,0.0,0.0,73,0.00,,,0.00,0,Wunderground v.1.15,2013-02-28 08:28:00,
2013-02-28 00:34:00,49.4,41.1,30.29,SSE,160,0.0,0.0,73,0.00,,,0.00,0,Wunderground v.1.15,2013-02-28 08:34:00,
2013-02-28 00:40:00,49.3,41.0,30.29,SSE,160,0.0,0.0,73,0.00,,,0.00,0,Wunderground v.1.15,2013-02-28 08:40:00,
2013-02-28 00:46:00,49.1,41.2,30.29,SSE,160,0.0,0.0,74,0.00,,,0.00,0,Wunderground v.1.15,2013-02-28 08:46:00,
2013-02-28 00:52:00,49.0,41.1,30.29,SSE,160,0.0,0.0,74,0.00,,,0.00,0,Wunderground v.1.15,2013-02-28 08:52:00,
2013-02-28 00:58:00,48.8,41.2,30.29,SSE,160,0.0,0.0,75,0.00,,,0.00,0,Wunderground v.1.15,2013-02-28 08:58:00,
2013-02-28 01:04:00,48.7,41.1,30.29,SSE,160,0.0,0.0,75,0.00,,,0.00,0,Wunderground v.1.15,2013-02-28 09:04:00,
2013-02-28 01:10:00,48.5,41.3,30.29,SSE,160,0.0,0.0,76,0.00,,,0.00,0,Wunderground v.1.15,2013-02-28 09:10:00,
2013-02-28 01:16:00,48.3,41.1,30.29,SSE,160,0.0,0.0,76,0.00,,,0.00,0,Wunderground v.1.15,2013-02-28 09:16:00,
2013-02-28 01:22:00,48.2,41.3,30.29,SSE,160,0.0,0.0,77,0.00,,,0.00,0,Wunderground v.1.15,2013-02-28 09:22:00,
2013-02-28 01:28:00,48.0,41.1,30.29,SSE,160,0.0,0.0,77,0.00,,,0.00,0,Wunderground v.1.15,2013-02-28 09:28:00,
2013-02-28 01:34:00,47.8,40.9,30.29,SSE,160,0.0,0.0,77,0.00,,,0.00,0,Wunderground v.1.15,2013-02-28 09:34:00,
2013-02-28 01:40:00,47.7,41.2,30.29,SSE,160,0.0,0.0,78,0.00,,,0.00,0,Wunderground v.1.15,2013-02-28 09:40:00,
2013-02-28 01:46:00,47.6,41.1,30.29,SSE,160,0.0,0.0,78,0.00,,,0.00,0,Wunderground v.1.15,2013-02-28 09:46:00,
2013-02-28 01:52:00,47.5,41.0,30.29,SSE,160,0.0,0.0,78,0.00,,,0.00,0,Wunderground v.1.15,2013-02-28 09:52:00,
2013-02-28 01:58:00,47.4,41.2,30.29,SSE,160,0.0,0.0,79,0.00,,,0.00,0,Wunderground v.1.15,2013-02-28 09:58:00,
2013-02-28 02:04:00,47.4,41.2,30.29,SSE,160,0.0,0.0,79,0.00,,,0.00,0,Wunderground v.1.15,2013-02-28 10:04:00,
2013-02-28 02:10:00,47.4,41.2,30.29,SSE,160,0.0,0.0,79,0.00,,,0.00,0,Wunderground v.1.15,2013-02-28 10:10:00,
2013-02-28 02:16:00,47.4,41.2,30.29,SSE,160,0.0,0.0,79,0.00,,,0.00,0,Wunderground v.1.15,2013-02-28 10:16:00,
2013-02-28 02:22:00,47.7,41.8,30.29,SSE,160,0.0,0.0,80,0.00,,,0.00,0,Wunderground v.1.15,2013-02-28 10:22:00,
2013-02-28 02:28:00,48.1,41.9,30.29,SSE,160,0.0,0.0,79,0.00,,,0.00,0,Wunderground v.1.15,2013-02-28 10:28:00,
2013-02-28 02:34:00,48.2,42.0,30.29,SSE,160,0.0,0.0,79,0.00,,,0.00,0,Wunderground v.1.15,2013-02-28 10:34:00,
2013-02-28 02:40:00,48.3,42.1,30.29,SSE,160,0.0,0.0,79,0.00,,,0.00,0,Wunderground v.1.15,2013-02-28 10:40:00,
2013-02-28 02:46:00,48.3,42.1,30.29,SSE,160,0.0,0.0,79,0.00,,,0.00,0,Wunderground v.1.15,2013-02-28 10:46:00,
2013-02-28 02:52:00,48.4,42.2,30.28,SSE,160,0.0,0.0,79,0.00,,,0.00,0,Wunderground v.1.15,2013-02-28 10:52:00,
2013-02-28 02:58:00,48.3,41.8,30.29,SSE,160,0.0,0.0,78,0.00,,,0.00,0,Wunderground v.1.15,2013-02-28 10:58:00,
2013-02-28 03:04:00,48.3,41.4,30.29,SSE,160,0.0,0.0,77,0.00,,,0.00,0,Wunderground v.1.15,2013-02-28 11:04:00,
2013-02-28 03:10:00,48.3,41.4,30.29,SSE,160,0.0,0.0,77,0.00,,,0.00,0,Wunderground v.1.15,2013-02-28 11:10:00,
2013-02-28 03:16:00,48.2,41.3,30.29,SSE,160,0.0,0.0,77,0.00,,,0.00,0,Wunderground v.1.15,2013-02-28 11:16:00,
2013-02-28 03:22:00,48.0,41.1,30.28,SSE,160,0.0,0.0,77,0.00,,,0.00,0,Wunderground v.1.15,2013-02-28 11:22:00,
2013-02-28 03:28:00,47.8,40.9,30.28,SSE,160,0.0,0.0,77,0.00,,,0.00,0,Wunderground v.1.15,2013-02-28 11:28:00,
2013-02-28 03:34:00,47.7,40.8,30.28,SSE,160,0.0,0.0,77,0.00,,,0.00,0,Wunderground v.1.15,2013-02-28 11:34:00,
2013-02-28 03:40:00,47.6,41.1,30.28,SSE,160,0.0,0.0,78,0.00,,,0.00,0,Wunderground v.1.15,2013-02-28 11:40:00,
2013-02-28 03:46:00,47.7,41.2,30.28,SSE,160,0.0,0.0,78,0.00,,,0.00,0,Wunderground v.1.15,2013-02-28 11:46:00,
2013-02-28 03:52:00,47.7,41.2,30.28,SSE,160,0.0,0.0,78,0.00,,,0.00,0,Wunderground v.1.15,2013-02-28 11:52:00,
2013-02-28 03:58:00,47.7,41.2,30.28,SSE,160,0.0,0.0,78,0.00,,,0.00,0,Wunderground v.1.15,2013-02-28 11:58:00,
2013-02-28 04:04:00,47.8,41.6,30.28,SSE,160,0.0,0.0,79,0.00,,,0.00,0,Wunderground v.1.15,2013-02-28 12:04:00,
2013-02-28 04:10:00,47.7,41.5,30.28,SSE,160,0.0,0.0,79,0.00,,,0.00,0,Wunderground v.1.15,2013-02-28 12:10:00,
2013-02-28 04:16:00,47.5,41.3,30.28,SSE,160,0.0,0.0,79,0.00,,,0.00,0,Wunderground v.1.15,2013-02-28 12:16:00,
2013-02-28 04:22:00,47.3,41.1,30.29,SSE,160,0.0,0.0,79,0.00,,,0.00,0,Wunderground v.1.15,2013-02-28 12:22:00,
2013-02-28 04:28:00,47.1,41.2,30.29,SSE,160,0.0,0.0,80,0.00,,,0.00,0,Wunderground v.1.15,2013-02-28 12:28:00,
2013-02-28 04:34:00,46.9,41.1,30.29,SSE,160,0.0,0.0,80,0.00,,,0.00,0,Wunderground v.1.15,2013-02-28 12:34:00,
2013-02-28 04:40:00,46.7,40.9,30.30,SSE,160,0.0,0.0,80,0.00,,,0.00,0,Wunderground v.1.15,2013-02-28 12:40:00,
2013-02-28 04:46:00,46.4,40.6,30.29,SSE,160,0.0,0.0,80,0.00,,,0.00,0,Wunderground v.1.15,2013-02-28 12:46:00,
2013-02-28 04:52:00,46.1,40.3,30.29,SSE,160,0.0,0.0,80,0.00,,,0.00,0,Wunderground v.1.15,2013-02-28 12:52:00,
2013-02-28 04:58:00,45.9,40.1,30.29,SSE,160,0.0,0.0,80,0.00,,,0.00,0,Wunderground v.1.15,2013-02-28 12:58:00,
2013-02-28 05:04:00,45.6,40.1,30.29,SSE,160,0.0,0.0,81,0.00,,,0.00,0,Wunderground v.1.15,2013-02-28 13:04:00,
2013-02-28 05:10:00,45.3,39.8,30.30,SSE,160,0.0,0.0,81,0.00,,,0.00,0,Wunderground v.1.15,2013-02-28 13:10:00,
2013-02-28 05:16:00,45.1,39.9,30.30,SSE,160,0.0,0.0,82,0.00,,,0.00,0,Wunderground v.1.15,2013-02-28 13:16:00,
2013-02-28 05:22:00,44.9,39.7,30.30,SSE,160,0.0,0.0,82,0.00,,,0.00,0,Wunderground v.1.15,2013-02-28 13:22:00,
2013-02-28 05:28:00,44.7,39.5,30.30,SSE,160,0.0,0.0,82,0.00,,,0.00,0,Wunderground v.1.15,2013-02-28 13:28:00,
2013-02-28 05:34:00,44.5,39.3,30.31,SSE,160,0.0,0.0,82,0.00,,,0.00,0,Wunderground v.1.15,2013-02-28 13:34:00,
2013-02-28 05:40:00,44.5,39.3,30.32,SSE,160,0.0,0.0,82,0.00,,,0.00,0,Wunderground v.1.15,2013-02-28 13:40:00,
2013-02-28 05:46:00,44.3,39.5,30.32,SSE,160,0.0,0.0,83,0.00,,,0.00,0,Wunderground v.1.15,2013-02-28 13:46:00,
2013-02-28 05:52:00,44.4,39.6,30.32,SSE,160,0.0,0.0,83,0.00,,,0.00,0,Wunderground v.1.15,2013-02-28 13:52:00,
2013-02-28 05:58:00,44.5,39.7,30.32,SSE,160,0.0,0.0,83,0.00,,,0.00,0,Wunderground v.1.15,2013-02-28 13:58:00,
2013-02-28 06:04:00,44.4,39.6,30.32,SSE,160,0.0,0.0,83,0.00,,,0.00,0,Wunderground v.1.15,2013-02-28 14:04:00,
2013-02-28 06:10:00,44.2,39.4,30.32,SSE,160,0.0,0.0,83,0.00,,,0.00,0,Wunderground v.1.15,2013-02-28 14:10:00,
2013-02-28 06:16:00,44.1,39.3,30.32,SSE,160,0.0,0.0,83,0.00,,,0.00,0,Wunderground v.1.15,2013-02-28 14:16:00,
2013-02-28 06:22:00,43.9,39.1,30.32,SSE,160,0.0,0.0,83,0.00,,,0.00,0,Wunderground v.1.15,2013-02-28 14:22:00,
2013-02-28 06:28:00,43.8,39.0,30.32,SSE,160,0.0,0.0,83,0.00,,,0.00,0,Wunderground v.1.15,2013-02-28 14:28:00,
2013-02-28 06:34:00,43.7,39.2,30.33,SSE,160,0.0,0.0,84,0.00,,,0.00,0,Wunderground v.1.15,2013-02-28 14:34:00,
2013-02-28 06:40:00,43.7,39.2,30.32,SSE,160,0.0,0.0,84,0.00,,,0.00,5,Wunderground v.1.15,2013-02-28 14:40:00,
2013-02-28 06:46:00,43.9,39.4,30.33,SSE,160,0.0,0.0,84,0.00,,,0.00,7,Wunderground v.1.15,2013-02-28 14:46:00,
2013-02-28 06:52:00,44.0,39.5,30.33,SSE,160,0.0,0.0,84,0.00,,,0.00,12,Wunderground v.1.15,2013-02-28 14:52:00,
2013-02-28 06:58:00,44.2,40.0,30.33,SSE,160,0.0,0.0,85,0.00,,,0.00,16,Wunderground v.1.15,2013-02-28 14:58:00,
2013-02-28 07:04:00,44.4,40.2,30.33,SSE,160,0.0,0.0,85,0.00,,,0.00,21,Wunderground v.1.15,2013-02-28 15:04:00,
2013-02-28 07:10:00,44.5,40.0,30.34,SSE,160,0.0,0.0,84,0.00,,,0.00,30,Wunderground v.1.15,2013-02-28 15:10:00,
2013-02-28 07:16:00,44.6,40.1,30.34,SSE,160,0.0,0.0,84,0.00,,,0.00,40,Wunderground v.1.15,2013-02-28 15:16:00,
2013-02-28 07:22:00,44.9,40.7,30.35,SSE,160,0.0,0.0,85,0.00,,,0.00,47,Wunderground v.1.15,2013-02-28 15:22:00,
2013-02-28 07:28:00,45.2,41.0,30.35,SSE,160,0.0,0.0,85,0.00,,,0.00,74,Wunderground v.1.15,2013-02-28 15:28:00,
2013-02-28 07:34:00,45.9,41.6,30.35,SSE,160,0.0,0.0,85,0.00,,,0.00,95,Wunderground v.1.15,2013-02-28 15:34:00,
2013-02-28 07:40:00,47.0,42.7,30.35,SSE,160,0.0,0.0,85,0.00,,,0.00,111,Wunderground v.1.15,2013-02-28 15:40:00,
2013-02-28 07:46:00,48.2,43.6,30.35,SSE,160,0.0,0.0,84,0.00,,,0.00,137,Wunderground v.1.15,2013-02-28 15:46:00,
2013-02-28 07:52:00,49.4,44.1,30.35,SSE,160,0.0,0.0,82,0.00,,,0.00,121,Wunderground v.1.15,2013-02-28 15:52:00,
2013-02-28 07:58:00,50.2,44.3,30.35,SSE,160,0.0,0.0,80,0.00,,,0.00,185,Wunderground v.1.15,2013-02-28 15:58:00,
2013-02-28 08:04:00,50.1,43.5,30.35,SSE,160,0.0,0.0,78,0.00,,,0.00,81,Wunderground v.1.15,2013-02-28 16:04:00,
2013-02-28 08:10:00,49.7,42.8,30.35,SSE,160,0.0,0.0,77,0.00,,,0.00,234,Wunderground v.1.15,2013-02-28 16:10:00,
2013-02-28 08:16:00,49.5,42.2,30.36,SSE,160,0.0,0.0,76,0.00,,,0.00,253,Wunderground v.1.15,2013-02-28 16:16:00,
2013-02-28 08:22:00,49.9,42.6,30.36,SSE,161,0.0,0.0,76,0.00,,,0.00,274,Wunderground v.1.15,2013-02-28 16:22:00,
2013-02-28 08:28:00,50.8,42.8,30.35,SSE,161,0.0,0.0,74,0.00,,,0.00,294,Wunderground v.1.15,2013-02-28 16:28:00,
2013-02-28 08:34:00,52.1,42.6,30.36,SSE,161,0.0,0.0,70,0.00,,,0.00,313,Wunderground v.1.15,2013-02-28 16:34:00,
2013-02-28 08:40:00,53.2,42.5,30.36,SSE,161,0.0,0.0,67,0.00,,,0.00,332,Wunderground v.1.15,2013-02-28 16:40:00,
2013-02-28 08:46:00,54.3,42.8,30.36,SSE,161,0.0,0.0,65,0.00,,,0.00,350,Wunderground v.1.15,2013-02-28 16:46:00,
2013-02-28 08:52:00,55.4,43.0,30.36,SSE,161,0.0,0.0,63,0.00,,,0.00,367,Wunderground v.1.15,2013-02-28 16:52:00,
2013-02-28 08:58:00,56.2,42.5,30.36,SSE,161,0.0,0.0,60,0.00,,,0.00,388,Wunderground v.1.15,2013-02-28 16:58:00,
2013-02-28 09:04:00,57.1,42.9,30.36,SSE,161,0.0,0.0,59,0.00,,,0.00,406,Wunderground v.1.15,2013-02-28 17:04:00,
2013-02-28 09:10:00,58.0,43.3,30.37,SSE,161,0.0,0.0,58,0.00,,,0.00,422,Wunderground v.1.15,2013-02-28 17:10:00,
2013-02-28 09:16:00,58.1,42.5,30.37,SSE,161,0.0,0.0,56,0.00,,,0.00,439,Wunderground v.1.15,2013-02-28 17:16:00,
2013-02-28 09:22:00,57.9,42.3,30.37,SSE,161,0.0,0.0,56,0.00,,,0.00,457,Wunderground v.1.15,2013-02-28 17:22:00,
2013-02-28 09:28:00,58.2,42.6,30.37,SSE,161,0.0,2.0,56,0.00,,,0.00,475,Wunderground v.1.15,2013-02-28 17:28:00,
2013-02-28 09:34:00,58.2,43.0,30.37,SSE,161,0.0,0.0,57,0.00,,,0.00,490,Wunderground v.1.15,2013-02-28 17:34:00,
2013-02-28 09:40:00,58.5,43.8,30.37,SSE,161,0.0,0.0,58,0.00,,,0.00,508,Wunderground v.1.15,2013-02-28 17:40:00,
2013-02-28 09:46:00,58.5,44.2,30.37,SSE,161,0.0,0.0,59,0.00,,,0.00,522,Wunderground v.1.15,2013-02-28 17:46:00,
2013-02-28 09:52:00,59.5,45.2,30.37,SSE,163,0.0,0.0,59,0.00,,,0.00,538,Wunderground v.1.15,2013-02-28 17:52:00,
2013-02-28 09:58:00,60.3,44.5,30.37,SSE,163,0.0,0.0,56,0.00,,,0.00,555,Wunderground v.1.15,2013-02-28 17:58:00,
2013-02-28 10:04:00,60.6,44.8,30.37,SSE,163,0.0,2.0,56,0.00,,,0.00,568,Wunderground v.1.15,2013-02-28 18:04:00,
2013-02-28 10:10:00,60.9,45.1,30.37,SSE,163,0.0,0.0,56,0.00,,,0.00,580,Wunderground v.1.15,2013-02-28 18:10:00,
2013-02-28 10:16:00,61.4,45.1,30.38,South,180,0.0,0.0,55,0.00,,,0.00,594,Wunderground v.1.15,2013-02-28 18:16:00,
2013-02-28 10:22:00,61.7,45.8,30.38,SSW,200,1.0,1.0,56,0.00,,,0.00,612,Wunderground v.1.15,2013-02-28 18:22:00,
2013-02-28 10:28:00,62.2,45.8,30.38,SSW,200,0.0,1.0,55,0.00,,,0.00,624,Wunderground v.1.15,2013-02-28 18:28:00,
2013-02-28 10:34:00,63.1,47.1,30.38,SSW,200,0.0,0.0,56,0.00,,,0.00,642,Wunderground v.1.15,2013-02-28 18:34:00,
2013-02-28 10:40:00,63.5,45.6,30.38,SSW,200,0.0,0.0,52,0.00,,,0.00,670,Wunderground v.1.15,2013-02-28 18:40:00,
2013-02-28 10:46:00,63.8,45.3,30.38,South,190,0.0,0.0,51,0.00,,,0.00,654,Wunderground v.1.15,2013-02-28 18:46:00,
2013-02-28 10:52:00,64.4,43.7,30.38,South,174,0.0,0.0,47,0.00,,,0.00,670,Wunderground v.1.15,2013-02-28 18:52:00,
2013-02-28 10:58:00,64.9,43.6,30.38,SE,138,0.0,3.0,46,0.00,,,0.00,684,Wunderground v.1.15,2013-02-28 18:58:00,
2013-02-28 11:04:00,65.3,44.5,30.38,ESE,121,1.0,3.0,47,0.00,,,0.00,686,Wunderground v.1.15,2013-02-28 19:04:00,
2013-02-28 11:10:00,65.4,44.6,30.38,ESE,121,0.0,0.0,47,0.00,,,0.00,701,Wunderground v.1.15,2013-02-28 19:10:00,
2013-02-28 11:16:00,65.9,43.4,30.38,ESE,114,1.0,4.0,44,0.00,,,0.00,712,Wunderground v.1.15,2013-02-28 19:16:00,
2013-02-28 11:22:00,66.3,43.7,30.38,ESE,113,1.0,3.0,44,0.00,,,0.00,712,Wunderground v.1.15,2013-02-28 19:22:00,
2013-02-28 11:28:00,66.6,43.4,30.37,ESE,117,1.0,3.0,43,0.00,,,0.00,715,Wunderground v.1.15,2013-02-28 19:28:00,
2013-02-28 11:34:00,66.5,42.1,30.37,ENE,73,2.0,3.0,41,0.00,,,0.00,724,Wunderground v.1.15,2013-02-28 19:34:00,
2013-02-28 11:40:00,66.7,42.2,30.37,ENE,73,1.0,1.0,41,0.00,,,0.00,731,Wunderground v.1.15,2013-02-28 19:40:00,
2013-02-28 11:46:00,67.2,43.9,30.37,North,360,1.0,4.0,43,0.00,,,0.00,737,Wunderground v.1.15,2013-02-28 19:46:00,
2013-02-28 11:52:00,67.1,43.8,30.36,North,355,2.0,2.0,43,0.00,,,0.00,744,Wunderground v.1.15,2013-02-28 19:52:00,
2013-02-28 11:58:00,67.4,43.5,30.36,NE,55,2.0,5.0,42,0.00,,,0.00,752,Wunderground v.1.15,2013-02-28 19:58:00,
2013-02-28 12:04:00,67.9,44.0,30.35,NE,56,3.0,6.0,42,0.00,,,0.00,751,Wunderground v.1.15,2013-02-28 20:04:00,
2013-02-28 12:10:00,68.3,43.7,30.35,ENE,58,2.0,2.0,41,0.00,,,0.00,749,Wunderground v.1.15,2013-02-28 20:10:00,
2013-02-28 12:16:00,68.5,42.6,30.35,ENE,58,2.0,3.0,39,0.00,,,0.00,745,Wunderground v.1.15,2013-02-28 20:16:00,
2013-02-28 12:22:00,68.8,45.4,30.34,NE,56,2.0,2.0,43,0.00,,,0.00,724,Wunderground v.1.15,2013-02-28 20:22:00,
2013-02-28 12:28:00,69.2,43.2,30.34,NE,42,2.0,5.0,39,0.00,,,0.00,733,Wunderground v.1.15,2013-02-28 20:28:00,
2013-02-28 12:34:00,69.0,42.3,30.33,NE,36,2.0,4.0,38,0.00,,,0.00,758,Wunderground v.1.15,2013-02-28 20:34:00,
2013-02-28 12:40:00,69.1,43.1,30.33,ENE,67,1.0,1.0,39,0.00,,,0.00,654,Wunderground v.1.15,2013-02-28 20:40:00,
2013-02-28 12:46:00,69.5,44.8,30.33,ESE,102,2.0,5.0,41,0.00,,,0.00,745,Wunderground v.1.15,2013-02-28 20:46:00,
2013-02-28 12:52:00,69.8,43.0,30.33,East,83,2.0,2.0,38,0.00,,,0.00,759,Wunderground v.1.15,2013-02-28 20:52:00,
2013-02-28 12:58:00,70.1,41.9,30.33,ENE,74,1.0,2.0,36,0.00,,,0.00,775,Wunderground v.1.15,2013-02-28 20:58:00,
2013-02-28 13:04:00,70.1,41.2,30.33,ENE,71,1.0,10.0,35,0.00,,,0.00,809,Wunderground v.1.15,2013-02-28 21:04:00,
2013-02-28 13:10:00,69.5,42.8,30.33,East,94,1.0,5.0,38,0.00,,,0.00,749,Wunderground v.1.15,2013-02-28 21:10:00,
2013-02-28 13:16:00,69.9,41.7,30.32,ENE,63,1.0,5.0,36,0.00,,,0.00,803,Wunderground v.1.15,2013-02-28 21:16:00,
2013-02-28 13:22:00,70.3,42.1,30.33,NE,51,2.0,5.0,36,0.00,,,0.00,482,Wunderground v.1.15,2013-02-28 21:22:00,
2013-02-28 13:28:00,70.2,42.7,30.32,NE,51,1.0,5.0,37,0.00,,,0.00,744,Wunderground v.1.15,2013-02-28 21:28:00,
2013-02-28 13:34:00,70.5,42.2,30.32,NNW,346,2.0,4.0,36,0.00,,,0.00,700,Wunderground v.1.15,2013-02-28 21:34:00,
2013-02-28 13:40:00,70.6,42.3,30.32,NW,325,3.0,4.0,36,0.00,,,0.00,738,Wunderground v.1.15,2013-02-28 21:40:00,
2013-02-28 13:46:00,70.5,42.2,30.32,NW,309,4.0,8.0,36,0.00,,,0.00,707,Wunderground v.1.15,2013-02-28 21:46:00,
2013-02-28 13:52:00,70.6,41.6,30.32,NNW,327,4.0,4.0,35,0.00,,,0.00,694,Wunderground v.1.15,2013-02-28 21:52:00,
2013-02-28 13:58:00,71.1,42.0,30.32,NW,324,2.0,4.0,35,0.00,,,0.00,682,Wunderground v.1.15,2013-02-28 21:58:00,
2013-02-28 14:04:00,71.5,41.6,30.32,NNW,331,3.0,9.0,34,0.00,,,0.00,668,Wunderground v.1.15,2013-02-28 22:04:00,
2013-02-28 14:10:00,71.4,41.6,30.32,NNW,329,2.0,2.0,34,0.00,,,0.00,664,Wunderground v.1.15,2013-02-28 22:10:00,
2013-02-28 14:16:00,71.7,41.8,30.31,North,5,2.0,2.0,34,0.00,,,0.00,659,Wunderground v.1.15,2013-02-28 22:16:00,
2013-02-28 14:22:00,72.2,43.0,30.31,NW,312,2.0,7.0,35,0.00,,,0.00,661,Wunderground v.1.15,2013-02-28 22:22:00,
2013-02-28 14:28:00,72.2,44.5,30.31,NNW,331,2.0,7.0,37,0.00,,,0.00,649,Wunderground v.1.15,2013-02-28 22:28:00,
2013-02-28 14:34:00,72.3,43.1,30.31,NNE,25,1.0,5.0,35,0.00,,,0.00,592,Wunderground v.1.15,2013-02-28 22:34:00,
2013-02-28 14:40:00,72.7,43.5,30.31,NE,42,1.0,1.0,35,0.00,,,0.00,647,Wunderground v.1.15,2013-02-28 22:40:00,
2013-02-28 14:46:00,72.5,42.5,30.31,North,360,1.0,5.0,34,0.00,,,0.00,638,Wunderground v.1.15,2013-02-28 22:46:00,
2013-02-28 14:52:00,72.4,42.4,30.30,North,360,1.0,1.0,34,0.00,,,0.00,362,Wunderground v.1.15,2013-02-28 22:52:00,
2013-02-28 14:58:00,72.4,43.2,30.30,NE,36,0.0,4.0,35,0.00,,,0.00,199,Wunderground v.1.15,2013-02-28 22:58:00,
2013-02-28 15:04:00,71.8,42.7,30.30,NE,51,2.0,9.0,35,0.00,,,0.00,346,Wunderground v.1.15,2013-02-28 23:04:00,
2013-02-28 15:10:00,71.3,43.7,30.30,ENE,67,1.0,1.0,37,0.00,,,0.00,596,Wunderground v.1.15,2013-02-28 23:10:00,
2013-02-28 15:16:00,72.0,42.8,30.30,ENE,71,1.0,1.0,35,0.00,,,0.00,464,Wunderground v.1.15,2013-02-28 23:16:00,
2013-02-28 15:22:00,72.6,42.6,30.30,ENE,70,1.0,1.0,34,0.00,,,0.00,396,Wunderground v.1.15,2013-02-28 23:22:00,
2013-02-28 15:28:00,72.8,43.5,30.30,ENE,70,1.0,1.0,35,0.00,,,0.00,417,Wunderground v.1.15,2013-02-28 23:28:00,
2013-02-28 15:34:00,72.7,43.5,30.30,ENE,58,1.0,3.0,35,0.00,,,0.00,497,Wunderground v.1.15,2013-02-28 23:34:00,
2013-02-28 15:40:00,72.8,43.5,30.30,ENE,58,0.0,0.0,35,0.00,,,0.00,415,Wunderground v.1.15,2013-02-28 23:40:00,
2013-02-28 15:46:00,72.8,42.8,30.31,ENE,58,1.0,4.0,34,0.00,,,0.00,452,Wunderground v.1.15,2013-02-28 23:46:00,
2013-02-28 15:52:00,72.5,43.3,30.31,ENE,58,1.0,2.0,35,0.00,,,0.00,439,Wunderground v.1.15,2013-02-28 23:52:00,
2013-02-28 15:58:00,72.8,43.5,30.31,NE,53,1.0,7.0,35,0.00,,,0.00,364,Wunderground v.1.15,2013-02-28 23:58:00,
2013-02-28 16:04:00,72.8,43.5,30.30,NE,44,2.0,10.0,35,0.00,,,0.00,396,Wunderground v.1.15,2013-03-01 00:04:00,
2013-02-28 16:10:00,72.7,42.7,30.30,NE,44,1.0,1.0,34,0.00,,,0.00,371,Wunderground v.1.15,2013-03-01 00:10:00,
2013-02-28 16:16:00,73.1,43.8,30.30,NE,44,0.0,1.0,35,0.00,,,0.00,327,Wunderground v.1.15,2013-03-01 00:16:00,
2013-02-28 16:22:00,73.1,43.1,30.30,NE,39,2.0,4.0,34,0.00,,,0.00,315,Wunderground v.1.15,2013-03-01 00:22:00,
2013-02-28 16:28:00,72.9,42.9,30.30,NE,39,3.0,4.0,34,0.00,,,0.00,294,Wunderground v.1.15,2013-03-01 00:28:00,
2013-02-28 16:34:00,73.2,43.1,30.30,NE,39,1.0,3.0,34,0.00,,,0.00,255,Wunderground v.1.15,2013-03-01 00:34:00,
2013-02-28 16:40:00,72.9,42.9,30.30,NE,40,1.0,1.0,34,0.00,,,0.00,241,Wunderground v.1.15,2013-03-01 00:40:00,
2013-02-28 16:46:00,72.9,43.6,30.29,NE,41,2.0,3.0,35,0.00,,,0.00,227,Wunderground v.1.15,2013-03-01 00:46:00,
2013-02-28 16:52:00,72.7,44.2,30.30,NE,36,2.0,3.0,36,0.00,,,0.00,200,Wunderground v.1.15,2013-03-01 00:52:00,
2013-02-28 16:58:00,72.4,43.2,30.29,NE,36,1.0,3.0,35,0.00,,,0.00,174,Wunderground v.1.15,2013-03-01 00:58:00,
2013-02-28 17:04:00,72.3,43.8,30.29,NE,36,1.0,8.0,36,0.00,,,0.00,146,Wunderground v.1.15,2013-03-01 01:04:00,
2013-02-28 17:10:00,72.0,43.6,30.29,North,355,1.0,1.0,36,0.00,,,0.00,121,Wunderground v.1.15,2013-03-01 01:10:00,
2013-02-28 17:16:00,71.8,43.4,30.29,North,355,1.0,1.0,36,0.00,,,0.00,97,Wunderground v.1.15,2013-03-01 01:16:00,
2013-02-28 17:22:00,71.6,43.2,30.29,North,355,0.0,0.0,36,0.00,,,0.00,77,Wunderground v.1.15,2013-03-01 01:22:00,
2013-02-28 17:28:00,71.3,43.7,30.30,North,5,0.0,0.0,37,0.00,,,0.00,58,Wunderground v.1.15,2013-03-01 01:28:00,
2013-02-28 17:34:00,70.8,43.2,30.30,North,5,0.0,1.0,37,0.00,,,0.00,21,Wunderground v.1.15,2013-03-01 01:34:00,
2013-02-28 17:40:00,70.0,43.2,30.30,North,5,0.0,0.0,38,0.00,,,0.00,18,Wunderground v.1.15,2013-03-01 01:40:00,
2013-02-28 17:46:00,69.3,43.3,30.30,North,5,0.0,0.0,39,0.00,,,0.00,14,Wunderground v.1.15,2013-03-01 01:46:00,
2013-02-28 17:52:00,68.7,43.4,30.30,North,5,0.0,0.0,40,0.00,,,0.00,9,Wunderground v.1.15,2013-03-01 01:52:00,
2013-02-28 17:58:00,68.1,42.9,30.30,North,5,0.0,0.0,40,0.00,,,0.00,5,Wunderground v.1.15,2013-03-01 01:58:00,
2013-02-28 18:04:00,67.6,43.1,30.30,North,5,0.0,8.0,41,0.00,,,0.00,0,Wunderground v.1.15,2013-03-01 02:04:00,
2013-02-28 18:10:00,67.0,43.8,30.30,North,5,0.0,0.0,43,0.00,,,0.00,0,Wunderground v.1.15,2013-03-01 02:10:00,
2013-02-28 18:16:00,66.3,43.1,30.30,North,5,0.0,0.0,43,0.00,,,0.00,0,Wunderground v.1.15,2013-03-01 02:16:00,
2013-02-28 18:22:00,65.7,43.2,30.30,North,5,0.0,0.0,44,0.00,,,0.00,0,Wunderground v.1.15,2013-03-01 02:22:00,
2013-02-28 18:28:00,65.2,42.7,30.30,North,5,0.0,0.0,44,0.00,,,0.00,0,Wunderground v.1.15,2013-03-01 02:28:00,
2013-02-28 18:34:00,64.6,43.3,30.30,North,5,0.0,0.0,46,0.00,,,0.00,0,Wunderground v.1.15,2013-03-01 02:34:00,
2013-02-28 18:40:00,64.1,43.4,30.31,North,5,0.0,0.0,47,0.00,,,0.00,0,Wunderground v.1.15,2013-03-01 02:40:00,
2013-02-28 18:46:00,63.6,43.5,30.31,North,5,0.0,0.0,48,0.00,,,0.00,0,Wunderground v.1.15,2013-03-01 02:46:00,
2013-02-28 18:52:00,63.1,43.6,30.31,North,5,0.0,0.0,49,0.00,,,0.00,0,Wunderground v.1.15,2013-03-01 02:52:00,
2013-02-28 18:58:00,62.5,43.6,30.31,North,5,0.0,0.0,50,0.00,,,0.00,0,Wunderground v.1.15,2013-03-01 02:58:00,
2013-02-28 19:04:00,62.0,43.1,30.31,North,5,0.0,7.0,50,0.00,,,0.00,0,Wunderground v.1.15,2013-03-01 03:04:00,
2013-02-28 19:10:00,61.6,43.3,30.31,North,5,0.0,0.0,51,0.00,,,0.00,0,Wunderground v.1.15,2013-03-01 03:10:00,
2013-02-28 19:16:00,61.3,43.0,30.32,North,5,0.0,0.0,51,0.00,,,0.00,0,Wunderground v.1.15,2013-03-01 03:16:00,
2013-02-28 19:22:00,61.0,43.2,30.32,North,5,0.0,0.0,52,0.00,,,0.00,0,Wunderground v.1.15,2013-03-01 03:22:00,
2013-02-28 19:28:00,60.8,43.1,30.32,North,5,0.0,0.0,52,0.00,,,0.00,0,Wunderground v.1.15,2013-03-01 03:28:00,
2013-02-28 19:34:00,60.4,43.2,30.32,North,5,0.0,0.0,53,0.00,,,0.00,0,Wunderground v.1.15,2013-03-01 03:34:00,
2013-02-28 19:40:00,60.1,43.4,30.32,North,5,0.0,0.0,54,0.00,,,0.00,0,Wunderground v.1.15,2013-03-01 03:40:00,
2013-02-28 19:46:00,59.9,43.2,30.32,North,5,0.0,0.0,54,0.00,,,0.00,0,Wunderground v.1.15,2013-03-01 03:46:00,
2013-02-28 19:52:00,59.7,43.5,30.32,North,5,0.0,0.0,55,0.00,,,0.00,0,Wunderground v.1.15,2013-03-01 03:52:00,
2013-02-28 19:58:00,59.4,43.2,30.32,North,5,0.0,0.0,55,0.00,,,0.00,0,Wunderground v.1.15,2013-03-01 03:58:00,
2013-02-28 20:04:00,59.2,43.5,30.32,North,5,0.0,0.0,56,0.00,,,0.00,0,Wunderground v.1.15,2013-03-01 04:04:00,
2013-02-28 20:10:00,59.1,43.4,30.32,North,5,0.0,0.0,56,0.00,,,0.00,0,Wunderground v.1.15,2013-03-01 04:10:00,
2013-02-28 20:16:00,59.0,43.3,30.33,North,5,0.0,0.0,56,0.00,,,0.00,0,Wunderground v.1.15,2013-03-01 04:16:00,
2013-02-28 20:22:00,59.0,43.8,30.33,North,5,0.0,0.0,57,0.00,,,0.00,0,Wunderground v.1.15,2013-03-01 04:22:00,
2013-02-28 20:28:00,58.8,43.6,30.33,North,5,0.0,0.0,57,0.00,,,0.00,0,Wunderground v.1.15,2013-03-01 04:28:00,
2013-02-28 20:34:00,58.5,43.3,30.33,North,5,0.0,0.0,57,0.00,,,0.00,0,Wunderground v.1.15,2013-03-01 04:34:00,
2013-02-28 20:40:00,58.4,43.7,30.33,North,5,0.0,0.0,58,0.00,,,0.00,0,Wunderground v.1.15,2013-03-01 04:40:00,
2013-02-28 20:46:00,58.0,43.3,30.34,North,5,0.0,0.0,58,0.00,,,0.00,0,Wunderground v.1.15,2013-03-01 04:46:00,
2013-02-28 20:52:00,57.7,43.5,30.34,North,5,0.0,0.0,59,0.00,,,0.00,0,Wunderground v.1.15,2013-03-01 04:52:00,
2013-02-28 20:58:00,57.4,43.6,30.34,North,5,0.0,0.0,60,0.00,,,0.00,0,Wunderground v.1.15,2013-03-01 04:58:00,
2013-02-28 21:00:00,57.3,43.5,30.34,North,5,0.0,0.0,60,0.00,,,0.00,0,Wunderground v.1.15,2013-03-01 05:00:00,
2013-02-28 21:02:00,57.2,43.4,30.34,North,5,0.0,0.0,60,0.00,,,0.00,0,Wunderground v.1.15,2013-03-01 05:02:00,
2013-02-28 21:04:00,57.2,43.4,30.34,North,5,0.0,0.0,60,0.00,,,0.00,0,Wunderground v.1.15,2013-03-01 05:04:00,
2013-02-28 21:06:00,57.1,43.3,30.34,North,5,0.0,0.0,60,0.00,,,0.00,0,Wunderground v.1.15,2013-03-01 05:06:00,
2013-02-28 21:12:00,56.9,43.6,30.34,North,5,0.0,0.0,61,0.00,,,0.00,0,Wunderground v.1.15,2013-03-01 05:12:00,
2013-02-28 21:16:00,56.7,43.4,30.34,North,5,0.0,0.0,61,0.00,,,0.00,0,Wunderground v.1.15,2013-03-01 05:16:00,
2013-02-28 21:22:00,56.4,43.1,30.34,North,5,0.0,0.0,61,0.00,,,0.00,0,Wunderground v.1.15,2013-03-01 05:22:00,
2013-02-28 21:28:00,55.9,43.1,30.35,North,5,0.0,0.0,62,0.00,,,0.00,0,Wunderground v.1.15,2013-03-01 05:28:00,
2013-02-28 21:34:00,55.7,43.3,30.35,North,5,0.0,0.0,63,0.00,,,0.00,0,Wunderground v.1.15,2013-03-01 05:34:00,
2013-02-28 21:40:00,55.4,43.4,30.34,North,5,0.0,0.0,64,0.00,,,0.00,0,Wunderground v.1.15,2013-03-01 05:40:00,
2013-02-28 21:46:00,55.2,43.2,30.34,North,5,0.0,0.0,64,0.00,,,0.00,0,Wunderground v.1.15,2013-03-01 05:46:00,
2013-02-28 21:52:00,55.0,43.0,30.35,North,5,0.0,0.0,64,0.00,,,0.00,0,Wunderground v.1.15,2013-03-01 05:52:00,
2013-02-28 21:58:00,55.0,43.0,30.34,North,5,0.0,0.0,64,0.00,,,0.00,0,Wunderground v.1.15,2013-03-01 05:58:00,
2013-02-28 22:04:00,55.1,43.1,30.35,North,5,0.0,4.0,64,0.00,,,0.00,0,Wunderground v.1.15,2013-03-01 06:04:00,
2013-02-28 22:10:00,55.1,43.1,30.34,North,5,0.0,0.0,64,0.00,,,0.00,0,Wunderground v.1.15,2013-03-01 06:10:00,
2013-02-28 22:16:00,55.0,43.4,30.35,North,5,0.0,0.0,65,0.00,,,0.00,0,Wunderground v.1.15,2013-03-01 06:16:00,
2013-02-28 22:22:00,55.2,43.6,30.35,North,5,0.0,0.0,65,0.00,,,0.00,0,Wunderground v.1.15,2013-03-01 06:22:00,
2013-02-28 22:28:00,55.1,43.1,30.34,North,5,0.0,0.0,64,0.00,,,0.00,0,Wunderground v.1.15,2013-03-01 06:28:00,
2013-02-28 22:34:00,54.5,43.0,30.34,North,5,0.0,0.0,65,0.00,,,0.00,0,Wunderground v.1.15,2013-03-01 06:34:00,
2013-02-28 22:40:00,53.8,42.7,30.34,North,5,0.0,0.0,66,0.00,,,0.00,0,Wunderground v.1.15,2013-03-01 06:40:00,
2013-02-28 22:46:00,53.3,42.6,30.34,North,5,0.0,0.0,67,0.00,,,0.00,0,Wunderground v.1.15,2013-03-01 06:46:00,
2013-02-28 22:52:00,53.1,42.8,30.34,North,5,0.0,0.0,68,0.00,,,0.00,0,Wunderground v.1.15,2013-03-01 06:52:00,
2013-02-28 22:58:00,52.9,42.6,30.34,North,5,0.0,0.0,68,0.00,,,0.00,0,Wunderground v.1.15,2013-03-01 06:58:00,
2013-02-28 23:04:00,52.7,42.8,30.35,North,5,0.0,0.0,69,0.00,,,0.00,0,Wunderground v.1.15,2013-03-01 07:04:00,
2013-02-28 23:10:00,52.5,42.6,30.35,North,5,0.0,0.0,69,0.00,,,0.00,0,Wunderground v.1.15,2013-03-01 07:10:00,
2013-02-28 23:16:00,52.3,42.8,30.35,North,5,0.0,0.0,70,0.00,,,0.00,0,Wunderground v.1.15,2013-03-01 07:16:00,
2013-02-28 23:22:00,52.2,42.7,30.35,North,5,0.0,0.0,70,0.00,,,0.00,0,Wunderground v.1.15,2013-03-01 07:22:00,
2013-02-28 23:28:00,52.4,43.3,30.34,North,360,0.0,1.0,71,0.00,,,0.00,0,Wunderground v.1.15,2013-03-01 07:28:00,
2013-02-28 23:34:00,52.7,43.2,30.35,North,360,0.0,2.0,70,0.00,,,0.00,0,Wunderground v.1.15,2013-03-01 07:34:00,
2013-02-28 23:40:00,52.9,43.4,30.35,North,360,1.0,2.0,70,0.00,,,0.00,0,Wunderground v.1.15,2013-03-01 07:40:00,
2013-02-28 23:46:00,53.1,43.2,30.34,North,360,2.0,3.0,69,0.00,,,0.00,0,Wunderground v.1.15,2013-03-01 07:46:00,
2013-02-28 23:52:00,53.2,43.3,30.34,North,360,2.0,3.0,69,0.00,,,0.00,0,Wunderground v.1.15,2013-03-01 07:52:00,
2013-02-28 23:58:00,53.1,42.8,30.34,North,360,1.0,3.0,68,0.00,,,0.00,0,Wunderground v.1.15,2013-03-01 07:58:00,